This is the latest recevied weather packets stored in our database for station/object KC8YYF. If no packets are shown the sender has not sent any weather packets the latest 10 day(s).
| Time | Temp. | Humidity | Pressure | Rain* | Wind** | Luminosity | Snow |
|---|---|---|---|---|---|---|---|
| 1778013027 | 20.56° C | 64% | 1008.9 hPa | 0 mm | - | 77 W/m² | - |
| 1778012722 | 20.56° C | 64% | 1008.8 hPa | 0 mm | - | 70 W/m² | - |
| 1778012419 | 20.56° C | 62% | 1008.8 hPa | 0 mm | - | 87 W/m² | - |
| 1778012116 | 20° C | 62% | 1008.7 hPa | 0 mm | - | 64 W/m² | - |
| 1778011813 | 20.56° C | 64% | 1008.7 hPa | 0 mm | - | 46 W/m² | - |
| 1778011511 | 20° C | 63% | 1009.1 hPa | 0 mm | - | 48 W/m² | - |
| 1778011208 | 20° C | 65% | 1008.9 hPa | 0 mm | - | 32 W/m² | - |
| 1778010904 | 20° C | 65% | 1009.1 hPa | 0 mm | - | 33 W/m² | - |
| 1778010601 | 20° C | 65% | 1008.9 hPa | 0 mm | - | 35 W/m² | - |
| 1778010299 | 20.56° C | 63% | 1008.9 hPa | 0 mm | - | 39 W/m² | - |
| 1778009998 | 20.56° C | 64% | 1009.2 hPa | 0 mm | - | 49 W/m² | - |
| 1778009696 | 20.56° C | 63% | 1009.3 hPa | 0 mm | - | 49 W/m² | - |
| 1778009394 | 20° C | 65% | 1009.2 hPa | 0 mm | - | 35 W/m² | - |
| 1778009092 | 20° C | 67% | 1009.2 hPa | 0 mm | - | 33 W/m² | - |
| 1778008789 | 20° C | 65% | 1009.3 hPa | 0 mm | - | 31 W/m² | - |
| 1778008488 | 20° C | 65% | 1009.2 hPa | 0 mm | - | 21 W/m² | - |
| 1778008184 | 20° C | 65% | 1009.2 hPa | 0 mm | - | 15 W/m² | - |
| 1778007879 | 20.56° C | 63% | 1009.3 hPa | 0 mm | - | 16 W/m² | - |
| 1778007575 | 20° C | 65% | 1009 hPa | 0 mm | - | 10 W/m² | - |
| 1778007273 | 20.56° C | 64% | 1009.1 hPa | 0 mm | - | 15 W/m² | - |
| 1778006969 | 20.56° C | 62% | 1009.2 hPa | 0 mm | - | 22 W/m² | - |
| 1778006666 | 21.11° C | 66% | 1009.3 hPa | 0 mm | - | 44 W/m² | - |
| 1778006362 | 21.67° C | 60% | 1009.2 hPa | 0 mm | - | 65 W/m² | - |
| 1778006059 | 21.67° C | 60% | 1009.2 hPa | 0 mm | - | 97 W/m² | - |
| 1778005756 | 21.67° C | 57% | 1009.4 hPa | 0 mm | - | 95 W/m² | - |
* Rain latest hour (hover to see other rain measurements)
** Current wind speed in m/s (hover to see current wind gust speed)